C/2020 K1 ( PanSTARRS )

Japanese version
Home page
Updated on September 18, 2021

---------------------------------------------------------------------

* Profile

Discovery Date May 17, 2020
Magnitude 20.6 mag
Discoverer Pan-STARRS2 1.8-m Ritchey-Chretien reflector at Haleakala

* Pictures

* Orbital Elements

Epoch 2023 May 16.0 TT = JDT 2460080.5
T 2023 May  9.07582 TT                                  Rudenko
q   3.0732891            (2000.0)            P               Q
z  -0.0000002      Peri.  213.98440     +0.06617708     -0.03770037
 +/-0.0000014      Node    94.35562     -0.53600499     +0.84152058
e   1.0000007      Incl.   89.67074     -0.84161704     -0.53890797
From 700 observations 2020 Apr. 17-2021 Sept. 1, mean residual 0".4.

* Finding Charts

* Magnitudes Graph

        m1 = 3.0 + 5 log d + 12.0 log r

---------------------------------------------------------------------

The orbital elements are published on M.P.E.C. 2021-R75.
The charts are made with StellaNavigator Ver.10 (AstroArts).
The magnitudes graphs are made with Comet for Windows.

---------------------------------------------------------------------

Copyright(C) Seiichi Yoshida (comet@aerith.net). All rights reserved.